Date,TemperatureHighF,TemperatureAvgF,TemperatureLowF,DewpointHighF,DewpointAvgF,DewpointLowF,HumidityHigh,HumidityAvg,HumidityLow,PressureMaxIn,PressureMinIn,WindSpeedMaxMPH,WindSpeedAvgMPH,GustSpeedMaxMPH,PrecipitationSumIn
2014-1-1,53,43,34,44,38,32,97,84,57,30.44,30.17,7,1,10,0.03
2014-1-2,59,50,45,58,50,44,99,97,93,30.17,29.58,12,1,21,0.67
2014-1-3,52,36,23,51,24,15,96,65,40,30.48,29.63,13,4,28,0.00
2014-1-4,49,37,23,43,30,16,94,78,64,30.52,30.26,10,2,13,0.00
2014-1-5,67,58,40,64,56,39,99,94,84,30.25,29.86,8,2,15,0.06
2014-1-6,68,54,31,65,48,13,98,80,47,30.16,29.70,14,5,26,0.05
2014-1-7,31,24,16,15,4,-3,75,44,27,30.57,30.17,12,3,20,0.00
2014-1-8,42,28,18,22,16,5,86,64,25,30.66,30.54,5,0,9,0.00
2014-1-9,54,41,26,46,32,21,82,71,58,30.57,30.45,7,1,12,0.00
2014-1-10,73,62,48,66,58,44,97,84,69,30.45,30.12,11,3,20,0.02
2014-1-11,74,67,58,71,65,57,98,94,82,30.12,29.62,18,6,37,0.81
2014-1-12,62,53,37,58,42,34,96,70,35,30.22,29.68,9,2,20,0.01
2014-1-13,67,50,33,55,43,32,98,79,51,30.25,30.01,9,0,15,0.00
2014-1-14,62,55,42,61,54,41,98,95,91,30.01,29.79,12,1,20,0.30
2014-1-15,61,47,34,52,42,33,99,86,55,30.01,29.87,8,1,10,0.01
2014-1-16,46,39,29,43,36,27,95,86,70,30.10,29.87,8,1,13,0.00
2014-1-17,58,46,28,49,35,25,97,69,36,30.12,29.88,9,2,15,0.00
2014-1-18,56,39,25,50,26,18,91,60,37,30.12,29.87,14,3,24,0.20
2014-1-19,58,42,25,36,30,22,88,63,40,30.09,29.94,9,1,14,0.00
2014-1-20,66,51,41,44,36,28,80,58,27,30.00,29.83,11,3,18,0.00
2014-1-21,64,53,36,48,40,31,87,65,37,29.89,29.50,14,4,23,0.01
2014-1-22,41,31,22,31,22,16,87,69,39,30.15,29.76,8,2,21,0.00
2014-1-23,44,30,19,23,19,15,92,66,35,30.36,30.14,5,0,12,0.00
2014-1-24,31,24,13,22,6,-1,77,48,26,30.60,30.35,11,2,20,0.00
2014-1-25,48,33,12,36,21,7,87,63,40,30.38,29.73,12,3,22,0.00
2014-1-26,54,43,30,39,28,21,81,57,33,30.05,29.91,9,1,15,0.00
2014-1-27,67,54,46,49,41,35,88,63,36,30.00,29.83,10,2,15,0.00
2014-1-28,51,32,23,48,24,16,93,73,50,30.28,30.00,12,3,18,0.00
2014-1-29,27,23,19,22,19,16,92,84,76,30.40,30.11,10,2,16,0.01
2014-1-30,33,28,22,31,22,15,94,79,69,30.42,30.22,7,1,12,0.00
2014-1-31,58,40,30,44,35,28,96,85,48,30.26,30.17,5,0,9,0.70
2014-2-1,55,41,28,47,35,25,98,83,32,30.26,30.12,9,1,12,0.05
2014-2-2,72,56,43,57,50,43,98,83,52,30.16,30.07,8,1,13,0.00
2014-2-3,71,62,47,68,58,42,98,88,78,30.22,29.95,15,3,29,0.00
2014-2-4,47,43,40,44,40,37,97,91,82,30.36,30.07,9,2,15,0.13
2014-2-5,68,56,43,67,54,43,99,96,86,30.07,29.82,16,3,27,0.16
2014-2-6,50,43,37,49,35,31,95,73,55,30.36,30.02,8,2,14,0.00
2014-2-7,51,39,31,38,34,29,96,82,56,30.36,30.25,8,1,10,0.04
2014-2-8,48,38,32,42,35,30,96,91,72,30.30,30.11,7,1,12,0.37
2014-2-9,53,41,28,46,37,27,98,87,59,30.23,30.03,7,1,10,0.00
2014-2-10,56,46,39,44,39,32,96,77,53,30.23,30.04,10,3,15,0.00
2014-2-11,40,32,28,34,30,25,95,93,75,30.38,30.21,9,1,16,0.59
2014-2-12,37,31,28,36,30,25,98,94,90,30.37,29.67,10,1,17,0.43
2014-2-13,38,36,34,37,35,32,98,95,89,29.76,29.50,13,4,21,0.19
2014-2-14,61,46,34,43,37,32,93,73,42,29.89,29.76,10,4,15,0.00
2014-2-15,54,48,33,49,39,20,94,72,42,30.07,29.55,16,5,32,0.11
2014-2-16,55,40,28,38,28,20,91,65,31,30.18,30.06,6,0,12,0.00
2014-2-17,46,40,32,34,32,28,96,73,54,30.38,30.17,12,4,16,0.00
2014-2-18,72,52,38,49,43,33,95,76,38,30.25,30.15,8,1,13,0.00
2014-2-19,76,61,43,60,51,41,99,72,49,30.16,29.95,13,4,21,0.00
2014-2-20,75,63,54,66,56,46,97,76,58,30.24,30.10,11,2,17,0.00
2014-2-21,76,66,56,68,63,55,96,89,76,30.11,29.83,19,4,31,0.19
2014-2-22,68,53,42,55,43,33,98,72,31,30.18,30.03,7,1,12,0.02
2014-2-23,69,53,38,51,44,37,98,74,43,30.13,29.93,5,0,7,0.00
2014-2-24,66,55,40,52,46,38,95,76,36,30.14,29.90,9,2,13,0.00
2014-2-25,72,52,37,55,43,34,95,72,46,30.13,29.87,15,1,26,0.00
2014-2-26,44,40,37,40,36,32,96,86,69,29.98,29.80,6,1,12,0.21
2014-2-27,59,43,30,40,35,29,97,77,38,29.98,29.79,9,2,16,0.00
2014-2-28,51,41,31,36,30,22,96,66,49,30.29,29.98,11,3,15,0.00
2014-3-1,56,44,34,44,36,26,89,74,58,30.33,30.23,8,1,12,0.00
2014-3-2,72,56,40,51,44,38,94,66,32,30.25,29.99,8,1,12,0.00
2014-3-3,73,53,30,58,45,26,91,74,52,30.21,29.84,14,4,23,0.01
2014-3-4,33,29,24,29,25,19,86,83,79,30.30,30.19,10,2,17,0.00
2014-3-5,40,36,33,38,34,28,95,90,83,30.25,30.13,7,1,12,0.11
2014-3-6,46,39,33,44,36,29,97,91,82,30.28,29.85,13,3,24,0.83
2014-3-7,53,46,38,50,44,35,97,93,87,29.94,29.69,23,6,39,1.11
2014-3-8,69,51,34,49,41,32,92,72,39,30.11,29.93,8,2,15,0.01
2014-3-9,73,59,47,50,46,42,87,65,37,30.09,30.00,8,1,15,0.00
2014-3-10,77,58,41,53,43,30,97,64,20,30.04,29.83,8,1,15,0.00
2014-3-11,78,63,48,54,50,45,91,64,32,29.86,29.71,10,2,16,0.00
2014-3-12,73,65,56,61,56,44,92,75,63,29.74,29.38,16,6,26,0.04
2014-3-13,56,45,30,44,22,12,73,42,21,30.26,29.57,15,4,25,0.01
2014-3-14,60,44,25,44,28,20,84,58,26,30.38,30.17,13,2,20,0.00
2014-3-15,75,62,50,50,44,38,84,57,27,30.17,29.97,12,4,22,0.00
2014-3-16,57,52,47,53,48,43,97,87,70,30.06,29.77,11,2,16,0.44
2014-3-17,53,42,39,52,41,38,97,96,94,29.92,29.74,8,2,15,0.32
2014-3-18,50,40,36,44,38,35,97,94,79,30.11,29.82,12,4,23,0.03
2014-3-19,59,48,41,53,45,40,98,92,78,30.16,30.02,8,2,12,0.06
2014-3-20,71,56,44,52,48,43,97,79,45,30.05,29.94,9,2,13,0.00
2014-3-21,64,53,40,46,38,29,97,61,29,30.18,30.03,9,1,14,0.00
2014-3-22,78,61,45,63,52,42,98,76,42,30.14,29.97,13,3,21,0.02
2014-3-23,67,58,44,62,54,40,98,89,69,30.13,29.87,10,2,18,0.01
2014-3-24,51,43,35,40,32,25,96,69,38,30.28,30.12,10,2,16,0.00
2014-3-25,55,46,40,50,42,32,96,84,63,30.15,29.71,11,3,20,0.37
2014-3-26,52,41,31,34,25,18,85,58,27,30.36,29.92,13,3,23,0.00
2014-3-27,55,42,26,41,31,23,93,69,40,30.52,30.35,10,1,14,0.00
2014-3-28,73,60,43,62,56,40,98,86,61,30.37,30.15,13,2,22,0.45
2014-3-29,68,64,60,66,62,60,99,96,90,30.15,29.66,12,3,21,1.01
2014-3-30,66,54,48,63,44,33,93,68,50,29.96,29.61,12,4,20,0.00
2014-3-31,74,56,43,39,33,30,77,45,21,30.12,29.97,12,2,18,0.00
2014-4-1,79,60,39,49,42,33,97,58,19,30.18,30.05,11,1,16,0.00
2014-4-2,87,70,57,51,48,37,69,48,17,30.14,30.03,10,2,16,0.00
2014-4-3,87,72,63,62,55,50,79,57,38,30.10,29.96,13,5,23,0.00
2014-4-4,83,72,65,63,61,55,86,68,46,29.97,29.84,15,6,24,0.00
2014-4-5,84,72,60,60,56,43,86,60,24,30.02,29.87,11,4,20,0.00
2014-4-6,61,57,52,56,46,40,90,68,55,30.16,30.02,12,3,18,0.00
2014-4-7,78,68,56,72,63,50,97,87,70,30.06,29.78,15,4,21,0.09
2014-4-8,75,68,61,67,64,57,98,88,64,29.79,29.57,12,3,21,0.21
2014-4-9,72,60,51,57,49,42,96,72,37,30.12,29.62,10,2,17,0.04
2014-4-10,73,61,44,56,48,41,98,67,35,30.30,30.12,11,1,18,0.00
2014-4-11,80,68,58,58,54,48,86,62,34,30.29,30.14,14,4,22,0.00
2014-4-12,81,67,53,60,56,51,98,71,40,30.25,30.16,9,1,15,0.00
2014-4-13,80,67,53,65,59,52,98,77,49,30.25,30.16,9,1,16,0.00
2014-4-14,78,70,59,67,63,56,95,81,65,30.16,29.91,11,3,20,0.01